STARLINK-11446 [DTC] (62416 NORAD) Tracking and Keplerian Element Data

This shows tracking and keplerian element data for the satellite.

Feedback or suggestion? Click here.




ElementValue
Catalog62416
NameSTARLINK-11446 [DTC]
Epoch Orbit683
Epoch Day35.07248348
Epoch Year2025
RAAN50.8292
Inclination42.9991
Eccentricity0.0001203
Argument of Perigee268.7119
Mean Anonmoly91.3613
Mean Motion15.7786782
Decay Rate-1.873E-05
L11 62416U 24249H 25035.07248348 -.00001873 00000+0 -78981-5 0 9999
L22 62416 42.9991 50.8292 0001203 268.7119 91.3613 15.77867820 6832



Live tracking and technical data element details for STARLINK-11446 [DTC] (NORAD 62416). STARLINK-11446 [DTC] can be tracked NOW for your location showing map with azimuth and elevation plus other details from your city location.







IsCatalogInMostPopularTable: catalog: 62416, numindb: 13
Update: records affected: 1



GetName: 62416 STARLINK-11446 [DTC]

Hit Count: updated at: Sun, 18 May 2025 22:57:08 GMT